Radiation Dose at Monitoring Post of Fukushima Daini Nuclear Power Station
Date,Time,MP-1(microSv/h),MP-2(microSv/h),MP-3(microSv/h),MP-4(microSv/h),MP-5(microSv/h),MP-6(microSv/h),MP-7(microSv/h),Wind Direction,Wind Velocity(m/s),Rain
2021/05/15,00:00,0.174,0.159,0.258,0.246,0.239,0.135,0.084,north-northwest,3.1,No
2021/05/15,00:10,0.174,0.158,0.255,0.248,0.239,0.136,0.083,north-northwest,2.7,No
2021/05/15,00:20,0.175,0.159,0.256,0.245,0.239,0.135,0.084,northwest,2.6,No
2021/05/15,00:30,0.175,0.159,0.257,0.246,0.238,0.137,0.085,north-northwest,1.6,No
2021/05/15,00:40,0.174,0.160,0.256,0.247,0.240,0.136,0.084,west-northwest,1.6,No
2021/05/15,00:50,0.175,0.160,0.257,0.246,0.239,0.137,0.084,west,0.7,No
2021/05/15,01:00,0.175,0.159,0.256,0.248,0.238,0.136,0.085,west-southwest,1.7,No
2021/05/15,01:10,0.176,0.160,0.257,0.247,0.241,0.137,0.085,south-southwest,1.9,No
2021/05/15,01:20,0.174,0.160,0.257,0.249,0.240,0.136,0.086,south-southwest,3.8,No
2021/05/15,01:30,0.177,0.159,0.258,0.247,0.241,0.137,0.086,south-southwest,2.7,No
2021/05/15,01:40,0.176,0.159,0.258,0.247,0.240,0.136,0.085,south,1.6,No
2021/05/15,01:50,0.176,0.159,0.257,0.248,0.241,0.136,0.085,south-southeast,1.4,No
2021/05/15,02:00,0.175,0.161,0.257,0.247,0.240,0.137,0.085,south,1.1,No
2021/05/15,02:10,0.175,0.160,0.258,0.248,0.240,0.137,0.086,-,CALM,No
2021/05/15,02:20,0.176,0.158,0.257,0.246,0.240,0.138,0.085,-,CALM,No
2021/05/15,02:30,0.174,0.160,0.256,0.247,0.239,0.137,0.085,northwest,0.8,No
2021/05/15,02:40,0.175,0.159,0.256,0.249,0.240,0.136,0.085,west-southwest,1.0,No
2021/05/15,02:50,0.176,0.159,0.257,0.246,0.238,0.137,0.086,west-southwest,1.6,No
2021/05/15,03:00,0.174,0.158,0.256,0.247,0.240,0.135,0.084,west-southwest,1.8,No
2021/05/15,03:10,0.176,0.159,0.256,0.246,0.239,0.136,0.085,west-southwest,1.4,No
2021/05/15,03:20,0.174,0.158,0.256,0.246,0.238,0.136,0.085,west,1.7,No
2021/05/15,03:30,0.175,0.159,0.258,0.247,0.239,0.137,0.085,southwest,1.0,No
2021/05/15,03:40,0.175,0.158,0.255,0.245,0.237,0.137,0.084,west-southwest,0.9,No
2021/05/15,03:50,0.174,0.158,0.257,0.246,0.238,0.136,0.084,west,0.6,No
2021/05/15,04:00,0.175,0.159,0.255,0.246,0.238,0.136,0.084,west-northwest,0.6,No
2021/05/15,04:10,0.173,0.159,0.255,0.247,0.238,0.136,0.084,west-northwest,0.6,No
2021/05/15,04:20,0.174,0.158,0.256,0.246,0.240,0.136,0.084,-,CALM,No
2021/05/15,04:30,0.174,0.158,0.256,0.246,0.238,0.137,0.084,north-northeast,0.6,No
2021/05/15,04:40,0.174,0.158,0.256,0.246,0.239,0.135,0.084,north,0.9,No
2021/05/15,04:50,0.175,0.158,0.255,0.247,0.238,0.135,0.083,north,1.0,No
2021/05/15,05:00,0.175,0.159,0.256,0.246,0.239,0.136,0.085,north,1.1,No
2021/05/15,05:10,0.174,0.158,0.256,0.245,0.238,0.137,0.084,-,CALM,No
2021/05/15,05:20,0.175,0.159,0.255,0.246,0.238,0.136,0.084,-,CALM,No
2021/05/15,05:30,0.174,0.159,0.255,0.245,0.240,0.136,0.084,-,CALM,No
2021/05/15,05:40,0.174,0.158,0.255,0.245,0.238,0.135,0.084,west,0.7,No
2021/05/15,05:50,0.174,0.158,0.255,0.247,0.239,0.135,0.084,north-northeast,1.5,No
2021/05/15,06:00,0.174,0.157,0.255,0.245,0.237,0.136,0.084,north,1.8,No
2021/05/15,06:10,0.174,0.157,0.254,0.245,0.239,0.135,0.083,north,2.2,No
2021/05/15,06:20,0.174,0.159,0.255,0.246,0.237,0.135,0.084,north,1.5,No
2021/05/15,06:30,0.176,0.158,0.256,0.245,0.238,0.136,0.084,north,1.1,No
2021/05/15,06:40,0.174,0.157,0.255,0.246,0.236,0.136,0.084,north-northeast,1.0,No
2021/05/15,06:50,0.175,0.159,0.256,0.244,0.240,0.136,0.084,north-northeast,0.8,No
2021/05/15,07:00,0.174,0.157,0.254,0.246,0.236,0.134,0.084,north-northwest,1.3,No
2021/05/15,07:10,0.175,0.159,0.256,0.244,0.240,0.136,0.083,north-northeast,2.3,No
2021/05/15,07:20,0.173,0.159,0.254,0.244,0.237,0.135,0.083,north,1.5,No
2021/05/15,07:30,0.176,0.157,0.253,0.247,0.238,0.135,0.085,north-northeast,1.6,No
2021/05/15,07:40,0.173,0.159,0.254,0.243,0.240,0.136,0.084,north-northeast,3.5,No
2021/05/15,07:50,0.175,0.158,0.257,0.243,0.237,0.137,0.084,north-northeast,3.3,No
2021/05/15,08:00,0.175,0.159,0.253,0.245,0.238,0.136,0.085,north-northeast,3.9,No
2021/05/15,08:10,0.174,0.158,0.254,0.245,0.241,0.136,0.084,north-northeast,2.8,No
2021/05/15,08:20,0.174,0.157,0.256,0.243,0.236,0.136,0.083,north,1.5,No
2021/05/15,08:30,0.173,0.159,0.255,0.245,0.237,0.135,0.084,northeast,1.9,No
2021/05/15,08:40,0.175,0.160,0.252,0.245,0.239,0.135,0.085,north-northeast,2.6,No
2021/05/15,08:50,0.175,0.158,0.252,0.245,0.239,0.135,0.084,northeast,2.5,No
2021/05/15,09:00,0.173,0.159,0.255,0.243,0.236,0.136,0.083,northeast,1.9,No
2021/05/15,09:10,0.173,0.159,0.258,0.242,0.237,0.135,0.084,northeast,2.2,No
2021/05/15,09:20,0.175,0.158,0.255,0.246,0.238,0.136,0.084,northeast,1.9,No
2021/05/15,09:30,0.172,0.159,0.253,0.246,0.239,0.136,0.084,east-northeast,1.6,No
2021/05/15,09:40,0.173,0.159,0.257,0.245,0.237,0.136,0.084,east-northeast,2.8,No
2021/05/15,09:50,0.175,0.158,0.256,0.243,0.236,0.135,0.084,east,2.5,No
2021/05/15,10:00,0.173,0.159,0.255,0.245,0.239,0.136,0.084,east,2.3,No
2021/05/15,10:10,0.173,0.160,0.257,0.247,0.239,0.136,0.083,east-northeast,2.1,No
2021/05/15,10:20,0.175,0.157,0.257,0.245,0.238,0.136,0.084,east,2.4,No
2021/05/15,10:30,0.173,0.158,0.255,0.244,0.236,0.134,0.084,east-northeast,1.8,No
2021/05/15,10:40,0.173,0.159,0.254,0.245,0.239,0.136,0.083,northeast,2.5,No
2021/05/15,10:50,0.175,0.158,0.257,0.247,0.239,0.136,0.084,east,2.6,No
2021/05/15,11:00,0.175,0.158,0.257,0.245,0.238,0.135,0.083,east,2.4,No
2021/05/15,11:10,0.173,0.159,0.254,0.244,0.237,0.135,0.084,east-southeast,2.5,No
2021/05/15,11:20,0.174,0.158,0.258,0.244,0.237,0.136,0.084,east,3.4,No
2021/05/15,11:30,0.174,0.158,0.257,0.247,0.240,0.137,0.084,east-southeast,3.0,No
2021/05/15,11:40,0.173,0.158,0.254,0.246,0.239,0.136,0.084,east-southeast,2.9,No
2021/05/15,11:50,0.172,0.159,0.255,0.244,0.237,0.137,0.085,southeast,2.4,No
2021/05/15,12:00,0.176,0.156,0.258,0.246,0.235,0.136,0.084,southeast,2.1,No
2021/05/15,12:10,0.175,0.158,0.256,0.248,0.238,0.135,0.084,east-southeast,2.4,No
2021/05/15,12:20,0.172,0.159,0.255,0.247,0.239,0.136,0.084,southeast,2.5,No
2021/05/15,12:30,0.171,0.157,0.253,0.244,0.238,0.136,0.084,southeast,2.6,No
2021/05/15,12:40,0.173,0.157,0.255,0.244,0.235,0.136,0.084,southeast,3.4,No
2021/05/15,12:50,0.174,0.158,0.258,0.247,0.235,0.135,0.084,southeast,3.5,No
2021/05/15,13:00,0.174,0.159,0.256,0.247,0.240,0.135,0.084,southeast,3.4,No
2021/05/15,13:10,0.173,0.158,0.255,0.245,0.239,0.137,0.083,south-southeast,2.7,No
2021/05/15,13:20,0.172,0.157,0.257,0.245,0.238,0.137,0.084,south-southeast,4.0,No
2021/05/15,13:30,0.173,0.159,0.258,0.246,0.235,0.136,0.083,south-southeast,4.0,No
2021/05/15,13:40,0.176,0.159,0.255,0.248,0.235,0.136,0.084,south-southeast,4.4,No
2021/05/15,13:50,0.174,0.158,0.254,0.245,0.237,0.135,0.085,south-southeast,4.3,No
2021/05/15,14:00,0.173,0.159,0.257,0.242,0.238,0.136,0.083,south-southeast,4.8,No
2021/05/15,14:10,0.173,0.158,0.257,0.247,0.238,0.135,0.084,south-southeast,4.9,No
2021/05/15,14:20,0.172,0.158,0.255,0.247,0.236,0.135,0.084,south-southeast,4.7,No
2021/05/15,14:30,0.174,0.157,0.253,0.245,0.236,0.136,0.084,south-southeast,4.9,No
2021/05/15,14:40,0.174,0.159,0.257,0.245,0.234,0.135,0.083,south-southeast,5.1,No
2021/05/15,14:50,0.173,0.158,0.257,0.248,0.240,0.135,0.084,south-southeast,4.4,No
2021/05/15,15:00,0.172,0.157,0.255,0.247,0.238,0.136,0.084,south-southeast,5.3,No
2021/05/15,15:10,0.174,0.159,0.257,0.245,0.237,0.136,0.084,south-southeast,4.9,No
2021/05/15,15:20,0.175,0.159,0.257,0.248,0.240,0.136,0.084,southeast,5.1,No
2021/05/15,15:30,0.174,0.158,0.255,0.245,0.239,0.137,0.083,south-southeast,4.3,No
2021/05/15,15:40,0.175,0.159,0.258,0.247,0.238,0.135,0.084,south,3.7,No
2021/05/15,15:50,0.174,0.157,0.255,0.246,0.241,0.135,0.083,south-southeast,4.8,No
2021/05/15,16:00,0.174,0.158,0.257,0.247,0.237,0.136,0.084,south-southeast,7.1,No
2021/05/15,16:10,0.175,0.159,0.258,0.247,0.238,0.134,0.083,south-southeast,5.5,No
2021/05/15,16:20,0.173,0.158,0.256,0.246,0.239,0.137,0.084,south-southeast,5.3,No
2021/05/15,16:30,0.175,0.159,0.257,0.248,0.237,0.136,0.083,south-southeast,5.4,No
2021/05/15,16:40,0.174,0.158,0.255,0.246,0.240,0.136,0.084,south-southeast,5.3,No
2021/05/15,16:50,0.173,0.158,0.258,0.246,0.238,0.137,0.083,south,4.2,No
2021/05/15,17:00,0.174,0.157,0.257,0.246,0.239,0.135,0.084,south-southeast,4.9,No
2021/05/15,17:10,0.173,0.159,0.257,0.245,0.238,0.136,0.084,south-southeast,4.3,No
2021/05/15,17:20,0.175,0.159,0.257,0.247,0.238,0.136,0.083,south,4.3,No
2021/05/15,17:30,0.174,0.158,0.256,0.245,0.240,0.135,0.084,south,3.4,No
2021/05/15,17:40,0.173,0.158,0.257,0.248,0.237,0.136,0.084,south-southeast,3.8,No
2021/05/15,17:50,0.175,0.158,0.256,0.244,0.239,0.135,0.084,south-southeast,5.3,No
2021/05/15,18:00,0.173,0.158,0.258,0.248,0.238,0.136,0.082,south-southeast,5.3,No
2021/05/15,18:10,0.175,0.158,0.256,0.246,0.237,0.137,0.084,south-southeast,5.5,No
2021/05/15,18:20,0.173,0.159,0.257,0.247,0.239,0.136,0.085,south,6.2,No
2021/05/15,18:30,0.175,0.157,0.256,0.247,0.236,0.135,0.084,south-southeast,6.0,No
2021/05/15,18:40,0.174,0.158,0.258,0.245,0.240,0.135,0.084,south,6.7,No
2021/05/15,18:50,0.172,0.158,0.255,0.247,0.238,0.136,0.082,south-southeast,6.6,No
2021/05/15,19:00,0.175,0.159,0.257,0.246,0.241,0.135,0.083,south-southeast,7.0,No
2021/05/15,19:10,0.173,0.158,0.255,0.247,0.237,0.136,0.084,south,6.3,No
2021/05/15,19:20,0.173,0.158,0.257,0.247,0.237,0.135,0.083,south-southeast,5.1,No
2021/05/15,19:30,0.173,0.158,0.257,0.248,0.237,0.136,0.083,south,4.9,No
2021/05/15,19:40,0.174,0.159,0.257,0.245,0.239,0.135,0.083,south-southeast,5.5,No
2021/05/15,19:50,0.173,0.158,0.256,0.247,0.239,0.137,0.083,south,6.0,No
2021/05/15,20:00,0.174,0.159,0.256,0.245,0.238,0.135,0.084,south,5.2,No
2021/05/15,20:10,0.174,0.158,0.255,0.247,0.239,0.135,0.083,south,4.7,No
2021/05/15,20:20,0.173,0.158,0.258,0.244,0.236,0.136,0.083,south,5.7,No
2021/05/15,20:30,0.175,0.158,0.257,0.248,0.239,0.135,0.084,south,6.0,No
2021/05/15,20:40,0.173,0.159,0.256,0.246,0.237,0.136,0.083,south,6.0,No
2021/05/15,20:50,0.174,0.157,0.256,0.246,0.240,0.135,0.084,south,6.3,No
2021/05/15,21:00,0.173,0.159,0.256,0.246,0.237,0.135,0.083,south,7.6,No
2021/05/15,21:10,0.174,0.157,0.257,0.246,0.239,0.135,0.084,south-southeast,6.9,No
2021/05/15,21:20,0.175,0.159,0.255,0.246,0.239,0.136,0.084,south,6.7,No
2021/05/15,21:30,0.174,0.157,0.257,0.245,0.238,0.135,0.084,south-southeast,6.1,No
2021/05/15,21:40,0.174,0.158,0.254,0.247,0.238,0.135,0.083,south,5.3,No
2021/05/15,21:50,0.172,0.158,0.257,0.245,0.237,0.136,0.084,south,5.7,No
2021/05/15,22:00,0.174,0.159,0.254,0.246,0.239,0.135,0.082,south,5.7,No
2021/05/15,22:10,0.174,0.159,0.258,0.244,0.238,0.136,0.084,south,5.6,No
2021/05/15,22:20,0.173,0.157,0.256,0.247,0.239,0.135,0.084,south-southeast,5.2,No
2021/05/15,22:30,0.174,0.159,0.256,0.245,0.238,0.136,0.083,south,5.8,No
2021/05/15,22:40,0.174,0.158,0.256,0.247,0.238,0.135,0.083,south,4.5,No
2021/05/15,22:50,0.174,0.157,0.256,0.246,0.238,0.135,0.083,south,5.0,No
2021/05/15,23:00,0.173,0.157,0.256,0.246,0.238,0.135,0.084,south,5.4,No
2021/05/15,23:10,0.175,0.159,0.254,0.247,0.239,0.135,0.083,south,5.9,No
2021/05/15,23:20,0.173,0.157,0.255,0.244,0.237,0.135,0.084,south,4.8,No
2021/05/15,23:30,0.175,0.159,0.255,0.247,0.240,0.136,0.083,south,5.8,No
2021/05/15,23:40,0.174,0.159,0.256,0.243,0.238,0.136,0.084,south,6.8,No
2021/05/15,23:50,0.174,0.158,0.256,0.246,0.238,0.135,0.083,south,7.2,No
